Location: Unspecified
(0.0000°N, 0.0000°E)
Time: 18:27:36
(UTC+00:00)

USA 389 - Pass Details

Date: 22 June 2025
Orbit: 575 x 578 km, 70.0° (Epoch: 14 August)

Event Time Altitude Azimuth Distance (km) Brightness Sun altitude
Exits shadow 20:09:54 11° 9° (N) 1,817 ? -29.0°
Drops below altitude 10° 20:10:03 10° 9° (N) 1,871 ? -29.1°
Sets 20:12:16 0° 12° (NNE) 2,769 ? -29.6°
